Home > Weather > Chemnitz > Past weeks

Flag for Germany Past Weather in Chemnitz, Saxony, Germany — Yesterday and Last 2 Weeks

Now
72 °F

Partly sunny.


Feels Like: 77 °F
Forecast: 58 / 75 °F
Wind: 3 mph from North

Location: Altenburg Nobitz

Current Time: Jun 28, 2016 at 5:15:49 PM

Latest Report: Jun 28, 2016 at 4:20 PM


Visibility: N/A

Pressure: 30.04 "Hg

Humidity: 47%

Dew Point: 50 °F

Location of ChemnitzLocation

Past Weather in Chemnitz — Graph

°F

Chemnitz Temperature Yesterday

Maximum temperature yesterday: 73 °F (at 3:50 PM)
Minimum temperature yesterday: 59 °F (at 7:50 AM)
Average temperature yesterday: 69 °F

High & Low Weather Summary for the Past Weeks

 TemperatureHumidityPressure
High93 °F (Jun 24, 2:50 PM)100% (Jun 17, 7:50 AM)30.21 "Hg (Jun 17, 7:50 AM)
Low57 °F (Jun 17, 7:50 AM)30% (Jun 24, 4:20 PM)29.53 "Hg (Jun 13, 3:50 PM)
Average70 °F61%29.97 "Hg
* Reported Jun 13 3:20 PM — Jun 28 3:50 PM, Chemnitz, Weather by CustomWeather, © 2016

Note: Actual official high and low records may vary slightly from our data, if they occured in-between our weather recording intervals... More about our weather records

Advertising

Chemnitz Weather History for the Previous 24 Hours

Scroll right to see more
 ConditionsComfort  
Time TempWeatherWind HumidityBarometerVisibility
3:50 PM
Tue, Jun 28
72 °FPartly sunny.5 mph47%30.04 "HgN/A
3:20 PM72 °FPartly sunny.6 mph47%30.04 "HgN/A
2:50 PM72 °FPartly sunny.3 mph50%30.07 "HgN/A
2:20 PM72 °FPartly sunny.3 mph50%30.07 "HgN/A
1:50 PM70 °FScattered clouds.6 mph50%30.07 "HgN/A
1:20 PM72 °FScattered clouds.6 mph53%30.07 "HgN/A
12:50 PM70 °FScattered clouds.6 mph53%30.09 "HgN/A
12:20 PM68 °FScattered clouds.6 mph60%30.09 "HgN/A
11:50 AM64 °FPartly sunny.5 mph73%30.09 "HgN/A
11:20 AM63 °FPartly sunny.7 mph83%30.09 "HgN/A
10:50 AM63 °FPartly sunny.7 mph83%30.09 "HgN/A
10:20 AM63 °FBroken clouds.5 mph94%30.09 "HgN/A
9:50 AM61 °FDrizzle. Broken clouds.6 mph100%30.09 "Hg4 mi
9:20 AM61 °FDrizzle. Partly sunny.6 mph100%30.07 "Hg2 mi
8:50 AM61 °FDrizzle. Fog.6 mph100%30.07 "Hg3 mi
8:20 AM61 °FLight rain. Broken clouds.6 mph100%30.07 "Hg4 mi
7:50 AM61 °FLight rain. Partly sunny.8 mph100%30.07 "Hg4 mi
7:20 PM
Mon, Jun 27
72 °FSunny.9 mph41%30.07 "Hg10 mi
6:50 PM72 °FSunny.8 mph41%30.04 "Hg10 mi
6:20 PM73 °FPassing clouds.8 mph38%30.04 "HgN/A
5:50 PM73 °FPassing clouds.10 mph38%30.04 "HgN/A
5:20 PM72 °FSunny.7 mph44%30.07 "Hg10 mi
Weather by CustomWeather, © 2016

See weather overviewHow to use our weather pages